Location: Bh?mavarapp?du
(16.7041°N, 80.6518°E)
Time: 01:56:25
(UTC+00:00)

Meteor 1-11 - Pass Details

Date: 21 April 2021
Orbit: 840 x 887 km, 81.2° (Epoch: 07 May)

Event Time Altitude Azimuth Distance (km) Brightness Sun altitude
Rises 13:09:21 0° 3° (N) 3,451 7.5 -4.3°
Reaches altitude 10° 13:11:53 10° 9° (N) 2,505 6.8 -4.9°
Maximum altitude 13:17:22 49° 83° (E) 1,098 4.5 -6.2°
Drops below altitude 10° 13:22:45 10° 157° (SSE) 2,471 6.3 -7.4°
Sets 13:25:14 0° 162° (SSE) 3,399 7.0 -8.0°
